Location: Cicognara
(44.9500°N, 10.4667°E)
Time: 06:10:28
(UTC+00:00)

Cosmos 1953 - Pass Details

Date: 20 June 2021
Orbit: 538 x 557 km, 82.5° (Epoch: 28 July)

Event Time Altitude Azimuth Distance (km) Brightness Sun altitude
Rises 20:46:34 0° 343° (NNW) 2,753 7.4 -13.2°
Reaches altitude 10° 20:48:51 10° 335° (NNW) 1,852 6.4 -13.4°
Maximum altitude 20:52:37 37° 268° (W) 879 3.6 -13.8°
Drops below altitude 10° 20:56:20 10° 201° (SSW) 1,833 4.6 -14.2°
Enters shadow 20:56:27 - 200° (SSW) 1,877 4.7 -14.2°
